Location: Burtsch�tz
(51.0528°N, 12.1764°E)
Time: 07:42:08
(UTC+00:00)

H-2A R/B - Pass Details

Date: 29 October 2020
Orbit: 528 x 653 km, 98.3° (Epoch: 01 December)

Event Time Altitude Azimuth Distance (km) Brightness Sun altitude
Rises 16:22:43 0° 178° (S) 2,937 6.2 -5.7°
Reaches altitude 10° 16:24:57 10° 184° (S) 2,043 5.5 -6.0°
Maximum altitude 16:29:18 50° 260° (W) 832 3.8 -6.7°
Drops below altitude 10° 16:33:44 10° 336° (NNW) 2,074 5.4 -7.4°
Sets 16:36:01 0° 342° (NNW) 2,986 6.1 -7.7°
